Alamogordo, NM

8:52 AM MDT on August 23, 2017 (GMT -0600)
Alamogordo-White Sands Regional

Weather History for KALM - April, 2013

Change the Weather History Date:

Friday, April 26, 2013

  Actual Average Record
Temperature  
Mean Temperature 65 °F -  
Max Temperature 80 °F 80 °F 91 °F (1959)
Min Temperature 50 °F 48 °F 34 °F (1960)
Growing Degree Days 15 (Base 50)    
Moisture  
Dew Point 13 °F    
Average Humidity 14    
Maximum Humidity 26    
Minimum Humidity 8    
Precipitation  
Precipitation 0.00 in - - ()
Sea Level Pressure  
Sea Level Pressure 30.12 in    
Wind  
Wind Speed 7 mph (North)    
Max Wind Speed 17 mph    
Max Gust Speed 21 mph    
Visibility 10 miles    
Events      
Averages and records for this station are not official NWS values.
T = Trace of Precipitation, MM = Missing Value Source: NWS Daily Summary

Daily Weather History Graph

Daily Weather History Graph

Search for Another Location

Airport or City:

Trip Planner

Search our weather history database for the weather conditions in past years. The results will help you decide how hot, cold, wet, or windy it might be!

Date:

Astronomy

Apr. 26, 2013 Rise Set
Actual Time 6:21 AM MDT 7:42 PM MDT
Civil Twilight 5:55 AM MDT 8:08 PM MDT
Nautical Twilight 5:24 AM MDT 8:39 PM MDT
Astronomical Twilight 4:52 AM MDT 9:11 PM MDT
Moon 9:03 PM MDT (4/26) 6:54 AM MDT (4/26)
Length of Visible Light 14h 12m
Length of Day
13h 20m
Full, 99% of the Moon is Illuminated
Apr 26
Full
May 2
Last Quarter
May 9
New
May 17
First Quarter
May 24
Full

Hourly Weather History & Observations

Time (MDT) Temp. Dew Point Humidity Pressure Visibility Wind Dir Wind Speed Gust Speed Precip Events Conditions
12:15 AM 62.6 °F 8.6 °F 12% 30.03 in 10.0 mi ENE 4.6 mph - N/A   Clear
12:35 AM 60.8 °F 8.6 °F 13% 30.04 in 10.0 mi ESE 3.5 mph - N/A   Clear
1:15 AM 57.2 °F 10.4 °F 16% 30.04 in 10.0 mi Calm Calm - N/A   Clear
1:35 AM 51.8 °F 10.4 °F 19% 30.05 in 10.0 mi Calm Calm - N/A   Clear
1:55 AM 55.4 °F 10.4 °F 17% 30.04 in 10.0 mi Calm Calm - N/A   Clear
2:15 AM 59.0 °F 12.2 °F 16% 30.04 in 10.0 mi West 12.7 mph 17.3 mph N/A   Clear
2:35 AM 60.8 °F 12.2 °F 15% 30.05 in 10.0 mi NW 10.4 mph - N/A   Clear
2:55 AM 55.4 °F 12.2 °F 18% 30.06 in 10.0 mi NNE 10.4 mph - N/A   Clear
3:15 AM 59.0 °F 14.0 °F 17% 30.07 in 10.0 mi NNE 8.1 mph - N/A   Clear
3:35 AM 57.2 °F 12.2 °F 17% 30.07 in 10.0 mi NW 10.4 mph - N/A   Clear
3:55 AM 53.6 °F 10.4 °F 18% 30.08 in 10.0 mi North 8.1 mph - N/A   Clear
4:15 AM 53.6 °F 10.4 °F 18% 30.08 in 10.0 mi NNE 6.9 mph - N/A   Clear
4:35 AM 50.0 °F 12.2 °F 22% 30.08 in 10.0 mi NE 9.2 mph - N/A   Clear
4:55 AM 50.0 °F 14.0 °F 24% 30.09 in 10.0 mi NE 9.2 mph - N/A   Clear
5:15 AM 50.0 °F 14.0 °F 24% 30.09 in 10.0 mi NE 10.4 mph - N/A   Clear
5:35 AM 51.8 °F 14.0 °F 22% 30.10 in 10.0 mi NE 9.2 mph - N/A   Clear
5:55 AM 51.8 °F 14.0 °F 22% 30.10 in 10.0 mi NE 8.1 mph - N/A   Clear
6:15 AM 50.0 °F 15.8 °F 26% 30.11 in 10.0 mi NE 8.1 mph - N/A   Clear
6:35 AM 51.8 °F 14.0 °F 22% 30.12 in 10.0 mi NNE 6.9 mph - N/A   Clear
6:55 AM 53.6 °F 14.0 °F 21% 30.13 in 10.0 mi NNE 6.9 mph - N/A   Clear
7:15 AM 57.2 °F 14.0 °F 18% 30.14 in 10.0 mi NNE 6.9 mph - N/A   Clear
7:35 AM 59.0 °F 15.8 °F 19% 30.15 in 10.0 mi NNE 5.8 mph - N/A   Clear
7:55 AM 62.6 °F 14.0 °F 15% 30.16 in 10.0 mi NNE 6.9 mph - N/A   Clear
8:15 AM 64.4 °F 12.2 °F 13% 30.16 in 10.0 mi NNE 8.1 mph - N/A   Clear
8:35 AM 64.4 °F 12.2 °F 13% 30.16 in 10.0 mi NNE 4.6 mph - N/A   Clear
8:55 AM 66.2 °F 14.0 °F 13% 30.16 in 10.0 mi NNE 6.9 mph - N/A   Clear
9:15 AM 66.2 °F 14.0 °F 13% 30.17 in 10.0 mi North 12.7 mph - N/A   Clear
9:35 AM 68.0 °F 14.0 °F 12% 30.17 in 10.0 mi NNE 9.2 mph - N/A   Clear
9:55 AM 68.0 °F 14.0 °F 12% 30.17 in 10.0 mi NNE 3.5 mph - N/A   Clear
10:15 AM 69.8 °F 12.2 °F 11% 30.18 in 10.0 mi NNW 5.8 mph - N/A   Clear
10:35 AM 69.8 °F 12.2 °F 11% 30.18 in 10.0 mi NNW 10.4 mph - N/A   Clear
10:55 AM 71.6 °F 14.0 °F 11% 30.18 in 10.0 mi North 5.8 mph - N/A   Clear
11:15 AM 71.6 °F 15.8 °F 12% 30.18 in 10.0 mi NW 4.6 mph - N/A   Clear
11:35 AM 73.4 °F 15.8 °F 11% 30.18 in 10.0 mi NNW 10.4 mph 16.1 mph N/A   Clear
11:55 AM 71.6 °F 15.8 °F 12% 30.17 in 10.0 mi WNW 12.7 mph - N/A   Clear
12:15 PM 75.2 °F 17.6 °F 11% 30.17 in 10.0 mi North 6.9 mph 18.4 mph N/A   Clear
12:35 PM 75.2 °F 17.6 °F 11% 30.16 in 10.0 mi WNW 13.8 mph 18.4 mph N/A   Clear
12:55 PM 75.2 °F 17.6 °F 11% 30.16 in 10.0 mi WNW 10.4 mph 17.3 mph N/A   Clear
1:15 PM 75.2 °F 15.8 °F 11% 30.15 in 10.0 mi NW 12.7 mph 17.3 mph N/A   Clear
1:35 PM 77.0 °F 15.8 °F 10% 30.15 in 10.0 mi NW 17.3 mph 20.7 mph N/A   Clear
1:55 PM 77.0 °F 15.8 °F 10% 30.14 in 10.0 mi NNE 4.6 mph 19.6 mph N/A   Clear
2:15 PM 77.0 °F 15.8 °F 10% 30.13 in 10.0 mi WNW 12.7 mph 20.7 mph N/A   Clear
2:35 PM 77.0 °F 15.8 °F 10% 30.13 in 10.0 mi West 6.9 mph 16.1 mph N/A   Clear
2:55 PM 78.8 °F 15.8 °F 9% 30.13 in 10.0 mi West 11.5 mph 17.3 mph N/A   Clear
3:15 PM 78.8 °F 15.8 °F 9% 30.12 in 10.0 mi West 15.0 mph 18.4 mph N/A   Clear
3:35 PM 78.8 °F 14.0 °F 9% 30.12 in 10.0 mi WNW 13.8 mph 18.4 mph N/A   Clear
3:55 PM 77.0 °F 14.0 °F 9% 30.11 in 10.0 mi NW 4.6 mph - N/A   Clear
4:15 PM 78.8 °F 14.0 °F 9% 30.11 in 10.0 mi WNW 8.1 mph - N/A   Clear
4:35 PM 78.8 °F 14.0 °F 9% 30.10 in 10.0 mi SW 4.6 mph - N/A   Clear
4:55 PM 80.6 °F 14.0 °F 8% 30.10 in 10.0 mi West 10.4 mph 16.1 mph N/A   Clear
5:15 PM 77.0 °F 14.0 °F 9% 30.10 in 10.0 mi SSW 4.6 mph - N/A   Clear
5:35 PM 78.8 °F 14.0 °F 9% 30.10 in 10.0 mi West 5.8 mph - N/A   Clear
5:55 PM 78.8 °F 14.0 °F 9% 30.10 in 10.0 mi West 11.5 mph - N/A   Clear
6:15 PM 78.8 °F 14.0 °F 9% 30.10 in 10.0 mi SW 10.4 mph - N/A   Clear
6:35 PM 77.0 °F 14.0 °F 9% 30.10 in 10.0 mi WNW 6.9 mph - N/A   Clear
6:55 PM 77.0 °F 14.0 °F 9% 30.11 in 10.0 mi West 4.6 mph - N/A   Clear
7:15 PM 77.0 °F 14.0 °F 9% 30.11 in 8.0 mi WSW 3.5 mph - N/A   Clear
7:35 PM 75.2 °F 14.0 °F 10% 30.11 in 1.8 mi Calm Calm - N/A   Haze
7:55 PM 71.6 °F 14.0 °F 11% 30.12 in 10.0 mi Calm Calm - N/A   Partly Cloudy
8:15 PM 71.6 °F 14.0 °F 11% 30.12 in 10.0 mi Calm Calm - N/A   Clear
8:35 PM 68.0 °F 14.0 °F 12% 30.13 in 10.0 mi SE 3.5 mph - N/A   Clear
8:55 PM 62.6 °F 10.4 °F 13% 30.13 in 10.0 mi East 8.1 mph - N/A   Clear
9:15 PM 62.6 °F 10.4 °F 13% 30.14 in 10.0 mi ENE 9.2 mph - N/A   Clear
9:35 PM 62.6 °F 10.4 °F 13% 30.14 in 10.0 mi ENE 8.1 mph - N/A   Clear
9:55 PM 59.0 °F 14.0 °F 17% 30.15 in 10.0 mi East 4.6 mph - N/A   Clear
10:15 PM 62.6 °F 12.2 °F 14% 30.15 in 10.0 mi ENE 8.1 mph - N/A   Clear
10:35 PM 62.6 °F 12.2 °F 14% 30.16 in 10.0 mi East 6.9 mph - N/A   Clear
10:55 PM 62.6 °F 12.2 °F 14% 30.16 in 10.0 mi East 5.8 mph - N/A   Clear
11:15 PM 60.8 °F 12.2 °F 15% 30.15 in 10.0 mi Calm Calm - N/A   Clear
11:35 PM 57.2 °F 10.4 °F 16% 30.16 in 10.0 mi SSW 3.5 mph - N/A   Clear
11:55 PM 57.2 °F 8.6 °F 14% 30.16 in 10.0 mi Calm Calm - N/A   Clear